Вернуться в каталог

STARLINK-37247

АктивенСвязьVLEO
NORAD 69835·PAYLOAD·🇺🇸 United States

Запущен Jul 5, 2026 с Cape Canaveral Space Force Station

Loading…

Ближайшие Пролёты (ближайшие 24 часа)

TLE

СвежийSource: CelesTrak SupGP

Эпоха: Sep 15, 2026, 03:24 UTC

1 69835C 26154S   26258.14215278  .00070171  00000+0  20727-2 0  2585
2 69835  53.1582 356.6116 0001199  96.7265  54.1602 15.34363620    12

Отслеживайте STARLINK-37247 в реальном времени с AllMySat

Download on the App Store